Simultaneous Nadir Overpasses (SNOs) Predictions

Prediction of SNOs between FY3D and LANDSAT-8 Satellite Orbit:

Table of predicted SNOs for the next 14.0 days since TLE Epoch: 12/31/2022
Index Date (FY3D) Time (FY3D) Lat,Lon (FY3D) SZA (FY3D ) Date (LANDSAT-8) Time (LANDSAT-8) Lat,Lon (LANDSAT-8) SZA (LANDSAT-8 ) Distance(km) Time Diff (sec)
1 01/01/2023 19:06:30 -72.51, 73.41 84.62 01/01/2023 19:07:22 -72.50, 73.40 84.62 0.67 52
2 01/01/2023 19:57:15 72.42,-119.10 95.29 01/01/2023 19:56:49 72.41,-119.13 95.29 1.19 26
3 01/04/2023 10:33:48 72.50, 21.63 95.13 01/04/2023 10:34:22 72.50, 21.64 95.13 0.31 34
4 01/04/2023 11:24:31 -72.40,-170.85 84.98 01/04/2023 11:23:52 -72.39,-170.94 84.99 3.25 39
5 01/07/2023 02:01:05 -72.48, -30.12 85.20 01/07/2023 02:01:25 -72.51, -30.11 85.17 3.55 20
6 01/07/2023 02:51:50 72.40, 137.35 94.72 01/07/2023 02:50:52 72.41, 137.35 94.73 1.26 58
7 01/09/2023 16:37:45 -72.87, 109.96 85.15 01/09/2023 16:38:56 -72.72, 110.88 85.31 34.62 71
8 01/09/2023 17:28:24 72.50, -81.95 94.47 01/09/2023 17:28:25 72.51, -81.86 94.48 3.16 1
9 01/09/2023 18:19:07 -72.38, 85.60 85.66 01/09/2023 18:17:55 -72.40, 85.57 85.63 2.52 72
10 01/12/2023 08:04:57 72.54, 58.85 94.13 01/12/2023 08:05:59 72.53, 58.78 94.11 2.76 62
11 01/12/2023 08:55:41 -72.47,-133.70 85.96 01/12/2023 08:55:28 -72.48,-133.68 85.96 0.45 13



Historial Predications of SNOs between FY3D and LANDSAT-8
